Location: Bratislava
(48.1500°N, 17.1170°E)
Time: 19:49:40
(UTC+02:00)

Envisat - Pass Details

Date: 13 May 2026
Orbit: 761 x 763 km, 98.4° (Epoch: 10 June)

Event Time Altitude Azimuth Distance (km) Brightness Sun altitude
Rises 03:48:25 0° 12° (NNE) 3,236 7.3 -12.2°
Reaches altitude 10° 03:50:44 10° 11° (NNE) 2,306 6.4 -12.0°
Maximum altitude 03:55:49 76° 287° (WNW) 788 3.0 -11.4°
Enters shadow 04:00:32 12° 202° (SSW) 2,166 4.8 -10.8°
